This is the latest recevied weather packets stored in our database for station/object EA4BHK-10. If no packets are shown the sender has not sent any weather packets the latest 10 day(s).
| Time | Temp. | Humidity | Pressure | Rain* | Wind** | Luminosity | Snow |
|---|---|---|---|---|---|---|---|
| 1777256174 | 10° C | 64% | 1021.8 hPa | - | - | - | - |
| 1777254974 | 10.56° C | 62% | 1021.6 hPa | - | - | - | - |
| 1777254374 | 11.11° C | 61% | 1021.3 hPa | - | - | - | - |
| 1777253174 | 11.67° C | 59% | 1021.2 hPa | - | - | - | - |
| 1777252574 | 11.67° C | 59% | 1021.2 hPa | - | - | - | - |
| 1777251374 | 12.22° C | 58% | 1021.4 hPa | - | - | - | - |
| 1777250774 | 12.22° C | 57% | 1021.3 hPa | - | - | - | - |
| 1777248973 | 12.78° C | 56% | 1021.4 hPa | - | - | - | - |
| 1777248374 | 12.78° C | 56% | 1021.4 hPa | - | - | - | - |
| 1777247774 | 13.33° C | 56% | 1021.5 hPa | - | - | - | - |
| 1777247174 | 13.33° C | 56% | 1021.4 hPa | - | - | - | - |
| 1777246574 | 13.33° C | 55% | 1021.4 hPa | - | - | - | - |
| 1777245974 | 13.89° C | 54% | 1021.3 hPa | - | - | - | - |
| 1777245374 | 13.89° C | 51% | 1021.1 hPa | - | - | - | - |
| 1777244774 | 14.44° C | 50% | 1020.9 hPa | - | - | - | - |
| 1777244174 | 14.44° C | 50% | 1020.9 hPa | - | - | - | - |
| 1777243574 | 15° C | 48% | 1020.8 hPa | - | - | - | - |
| 1777242974 | 15° C | 47% | 1020.7 hPa | - | - | - | - |
| 1777242374 | 15° C | 48% | 1020.8 hPa | - | - | - | - |
| 1777241774 | 15° C | 48% | 1020.9 hPa | - | - | - | - |
| 1777241174 | 15.56° C | 49% | 1020.9 hPa | - | - | - | - |
| 1777240573 | 15.56° C | 48% | 1020.8 hPa | - | - | - | - |
| 1777239974 | 16.11° C | 47% | 1020.6 hPa | - | - | - | - |
| 1777239374 | 16.11° C | 47% | 1020.5 hPa | - | - | - | - |
| 1777238774 | 16.67° C | 46% | 1020.4 hPa | - | - | - | - |
* Rain since midnight (hover to see other rain measurements)
** Current wind speed in m/s (hover to see current wind gust speed)